Cameron, WI

11:23 AM CST on December 07, 2016 (GMT -0600)
Rice Lake Regional-Carl's

Weather History for KRPD - March, 2014

Change the Weather History Date:

Monday, March 17, 2014

  Actual Average Record
Temperature  
Mean Temperature 22 °F -  
Max Temperature 27 °F 35 °F 78 °F (2012)
Min Temperature 17 °F 18 °F -7 °F (2013)
Degree Days  
Heating Degree Days 43    
Moisture  
Dew Point 15 °F    
Average Humidity 72    
Maximum Humidity 85    
Minimum Humidity 59    
Precipitation  
Precipitation 0.00 in - - ()
Sea Level Pressure  
Sea Level Pressure 29.77 in    
Wind  
Wind Speed 10 mph (SE)    
Max Wind Speed 18 mph    
Max Gust Speed 21 mph    
Visibility 9 miles    
Events Snow    
Averages and records for this station are not official NWS values.
T = Trace of Precipitation, MM = Missing Value Source: NWS Daily Summary

Daily Weather History Graph

Daily Weather History Graph

Search for Another Location

Airport or City:

Trip Planner

Search our weather history database for the weather conditions in past years. The results will help you decide how hot, cold, wet, or windy it might be!

Date:

Astronomy

Mar. 17, 2014 Rise Set
Actual Time 7:15 AM CDT 7:15 PM CDT
Civil Twilight 6:46 AM CDT 7:45 PM CDT
Nautical Twilight 6:11 AM CDT 8:19 PM CDT
Astronomical Twilight 5:36 AM CDT 8:55 PM CDT
Moon 8:38 PM CDT (3/17) 7:28 AM CDT (3/17)
Length of Visible Light 12h 58m
Length of Day
11h 59m
Full, 99% of the Moon is Illuminated
Mar 17
Full
Mar 23
Last Quarter
Mar 30
New
Apr 7
First Quarter
Apr 15
Full

Hourly Weather History & Observations

Time (CDT) Temp. Windchill Dew Point Humidity Pressure Visibility Wind Dir Wind Speed Gust Speed Precip Events Conditions
12:15 AM 17.2 °F 8.9 °F 6.3 °F 62% 30.05 in 10.0 mi SE 5.8 mph - N/A   Overcast
12:35 AM 17.4 °F 7.1 °F 6.6 °F 63% 30.03 in 10.0 mi SE 8.1 mph - N/A   Overcast
12:55 AM 17.4 °F 7.1 °F 6.6 °F 63% 30.02 in 10.0 mi SE 8.1 mph - N/A   Overcast
1:15 AM 17.6 °F 7.3 °F 6.4 °F 62% 30.00 in 10.0 mi SE 8.1 mph - N/A   Overcast
1:35 AM 18.0 °F 7.7 °F 7.2 °F 63% 29.98 in 10.0 mi SE 8.1 mph - N/A   Overcast
1:55 AM 18.3 °F 9.1 °F 7.3 °F 62% 29.98 in 10.0 mi SE 6.9 mph - N/A   Overcast
2:15 AM 18.3 °F 9.1 °F 8.1 °F 64% 29.98 in 10.0 mi SE 6.9 mph - N/A   Overcast
2:35 AM 18.9 °F 8.0 °F 8.1 °F 63% 29.96 in 10.0 mi SE 9.2 mph - N/A   Overcast
2:55 AM 19.0 °F 9.0 °F 7.9 °F 62% 29.95 in 10.0 mi SE 8.1 mph - N/A   Overcast
3:15 AM 19.4 °F 7.9 °F 7.2 °F 59% 29.93 in 10.0 mi SSE 10.4 mph - N/A   Overcast
3:35 AM 19.4 °F 7.9 °F 7.7 °F 60% 29.92 in 10.0 mi SE 10.4 mph - N/A   Overcast
3:55 AM 19.6 °F 6.8 °F 8.2 °F 61% 29.89 in 10.0 mi SSE 12.7 mph - N/A   Overcast
4:15 AM 19.9 °F 8.6 °F 8.4 °F 61% 29.89 in 10.0 mi SSE 10.4 mph - N/A   Overcast
4:35 AM 19.9 °F 6.7 °F 8.8 °F 62% 29.88 in 10.0 mi SE 13.8 mph - N/A   Overcast
4:55 AM 19.9 °F 6.2 °F 9.5 °F 64% 29.86 in 10.0 mi SE 15.0 mph - N/A   Overcast
5:15 AM 19.9 °F 6.7 °F 10.0 °F 65% 29.86 in 10.0 mi SE 13.8 mph 18.4 mph N/A   Overcast
5:35 AM 19.9 °F 6.7 °F 10.4 °F 67% 29.85 in 10.0 mi SE 13.8 mph 18.4 mph N/A   Overcast
5:55 AM 19.9 °F 6.2 °F 10.9 °F 68% 29.84 in 10.0 mi SE 15.0 mph 18.4 mph N/A   Overcast
6:15 AM 19.9 °F 6.2 °F 11.3 °F 69% 29.83 in 10.0 mi SE 15.0 mph - N/A   Overcast
6:35 AM 19.9 °F 6.7 °F 11.8 °F 71% 29.82 in 7.0 mi SE 13.8 mph 19.6 mph N/A Snow Light Snow
6:55 AM 19.8 °F 8.3 °F 12.4 °F 73% 29.81 in 7.0 mi SE 10.4 mph - N/A   Overcast
7:15 AM 19.8 °F 7.7 °F 12.7 °F 74% 29.80 in 10.0 mi SE 11.5 mph - N/A   Overcast
7:35 AM 19.9 °F 6.2 °F 12.7 °F 74% 29.79 in 10.0 mi SSE 15.0 mph - N/A   Overcast
7:55 AM 19.8 °F 6.5 °F 13.1 °F 75% 29.79 in 10.0 mi SE 13.8 mph 18.4 mph N/A   Scattered Clouds
8:15 AM 19.8 °F 6.5 °F 13.5 °F 77% 29.79 in 10.0 mi SSE 13.8 mph - N/A   Scattered Clouds
8:35 AM 19.9 °F 6.7 °F 13.6 °F 77% 29.78 in 10.0 mi SSE 13.8 mph 19.6 mph N/A   Mostly Cloudy
8:55 AM 20.3 °F 5.7 °F 13.6 °F 75% 29.77 in 10.0 mi SE 17.3 mph 20.7 mph N/A   Mostly Cloudy
9:15 AM 20.3 °F 5.7 °F 14.0 °F 77% 29.76 in 10.0 mi SSE 17.3 mph 20.7 mph N/A   Overcast
9:35 AM 20.7 °F 7.6 °F 13.8 °F 75% 29.75 in 10.0 mi SE 13.8 mph - N/A   Overcast
9:55 AM 21.0 °F 8.1 °F 14.0 °F 74% 29.74 in 10.0 mi SSE 13.8 mph - N/A   Overcast
10:15 AM 20.8 °F 6.8 °F 14.0 °F 75% 29.73 in 3.0 mi SSE 16.1 mph - N/A Snow Light Snow
10:35 AM 21.2 °F 8.3 °F 14.4 °F 75% 29.73 in 7.0 mi SSE 13.8 mph 20.7 mph N/A   Overcast
10:55 AM 21.6 °F 7.8 °F 14.4 °F 74% 29.73 in 10.0 mi SE 16.1 mph 20.7 mph N/A   Overcast
11:15 AM 21.7 °F 7.1 °F 14.7 °F 74% 29.72 in 10.0 mi SSE 18.4 mph - N/A Snow Light Snow
11:35 AM 21.6 °F 9.3 °F 14.4 °F 74% 29.72 in 10.0 mi SSE 12.7 mph 20.7 mph N/A   Overcast
11:55 AM 21.6 °F 7.8 °F 15.8 °F 78% 29.72 in 3.0 mi SE 16.1 mph - N/A Snow Light Snow
12:15 PM 21.2 °F 8.3 °F 16.0 °F 80% 29.71 in 2.0 mi SE 13.8 mph - N/A Snow Light Snow
12:35 PM 21.9 °F 9.8 °F 16.3 °F 79% 29.70 in 5.0 mi SE 12.7 mph - N/A Snow Light Snow
12:55 PM 21.9 °F 9.8 °F 16.9 °F 81% 29.70 in 7.0 mi SE 12.7 mph - N/A Snow Light Snow
1:15 PM 21.7 °F 9.6 °F 17.2 °F 83% 29.71 in 2.5 mi SE 12.7 mph 16.1 mph N/A Snow Light Snow
1:35 PM 21.9 °F 9.8 °F 17.8 °F 84% 29.70 in 4.0 mi SE 12.7 mph - N/A Snow Light Snow
1:55 PM 21.9 °F 11.0 °F 18.0 °F 85% 29.69 in 4.0 mi SE 10.4 mph - N/A Snow Light Snow
2:15 PM 22.1 °F 10.6 °F 17.8 °F 83% 29.69 in 10.0 mi SE 11.5 mph - N/A Snow Light Snow
2:35 PM 22.3 °F 10.2 °F 18.1 °F 84% 29.68 in 5.0 mi SE 12.7 mph - N/A   Overcast
2:55 PM 22.5 °F 11.1 °F 18.7 °F 85% 29.67 in 1.5 mi SE 11.5 mph 16.1 mph N/A Snow Light Snow
3:15 PM 22.5 °F 11.1 °F 18.5 °F 85% 29.67 in 7.0 mi ESE 11.5 mph - N/A Snow Light Snow
3:35 PM 23.0 °F 12.4 °F 19.0 °F 85% 29.67 in 3.0 mi ESE 10.4 mph - N/A Snow Light Snow
3:55 PM 23.5 °F 13.7 °F 19.0 °F 83% 29.68 in 10.0 mi SE 9.2 mph - N/A Snow Light Snow
4:15 PM 24.4 °F 14.9 °F 19.4 °F 81% 29.67 in 10.0 mi ESE 9.2 mph - N/A Snow Light Snow
4:35 PM 24.8 °F 14.0 °F 19.2 °F 79% 29.67 in 10.0 mi ESE 11.5 mph - N/A   Overcast
4:55 PM 25.5 °F 15.5 °F 19.4 °F 78% 29.67 in 10.0 mi ESE 10.4 mph - N/A   Overcast
5:15 PM 25.2 °F 14.4 °F 19.2 °F 78% 29.67 in 10.0 mi ESE 11.5 mph - N/A   Overcast
5:35 PM 25.3 °F 15.3 °F 19.0 °F 77% 29.67 in 10.0 mi ESE 10.4 mph - N/A   Overcast
5:55 PM 25.7 °F 15.7 °F 19.4 °F 77% 29.67 in 10.0 mi ESE 10.4 mph - N/A   Overcast
6:15 PM 26.2 °F 15.8 °F 19.4 °F 75% 29.67 in 10.0 mi ESE 11.5 mph - N/A   Overcast
6:35 PM 26.4 °F 16.0 °F 19.4 °F 75% 29.67 in 10.0 mi SE 11.5 mph - N/A   Overcast
6:55 PM 26.2 °F 16.4 °F 18.9 °F 74% 29.67 in 10.0 mi ESE 10.4 mph - N/A   Overcast
7:15 PM 26.4 °F 16.0 °F 18.7 °F 73% 29.66 in 10.0 mi ESE 11.5 mph - N/A   Overcast
7:35 PM 26.6 °F 17.5 °F 18.7 °F 72% 29.68 in 10.0 mi SE 9.2 mph - N/A   Overcast
7:55 PM 27.0 °F 18.7 °F 18.7 °F 71% 29.69 in 10.0 mi ESE 8.1 mph - N/A   Overcast
8:15 PM 27.0 °F 17.3 °F 18.9 °F 72% 29.68 in 10.0 mi ESE 10.4 mph - N/A   Overcast
8:35 PM 27.1 °F 19.7 °F 19.0 °F 72% 29.69 in 10.0 mi ESE 6.9 mph - N/A   Overcast
8:55 PM 27.1 °F 20.7 °F 18.9 °F 71% 29.70 in 10.0 mi ESE 5.8 mph - N/A   Overcast
9:15 PM 27.1 °F 23.2 °F 19.0 °F 72% 29.70 in 10.0 mi ESE 3.5 mph - N/A   Overcast
9:35 PM 27.1 °F 20.7 °F 19.0 °F 72% 29.70 in 10.0 mi East 5.8 mph - N/A   Overcast
9:55 PM 26.8 °F 22.8 °F 18.5 °F 71% 29.70 in 10.0 mi East 3.5 mph - N/A   Mostly Cloudy
10:35 PM 27.1 °F 23.2 °F 18.5 °F 70% 29.72 in 10.0 mi East 3.5 mph - N/A   Overcast
10:55 PM 27.3 °F 20.9 °F 18.1 °F 68% 29.71 in 10.0 mi East 5.8 mph - N/A   Overcast
11:15 PM 27.3 °F 20.9 °F 17.6 °F 67% 29.71 in 10.0 mi East 5.8 mph - N/A   Overcast
11:35 PM 27.5 °F 21.1 °F 17.6 °F 66% 29.71 in 10.0 mi ESE 5.8 mph - N/A   Overcast
11:55 PM 27.7 °F 21.3 °F 17.6 °F 66% 29.71 in 10.0 mi East 5.8 mph - N/A   Overcast